FW6082 Weather Reports


time (UTC)temp
C
wind
direction
speed
KPH
gust
KPH
rain 1hr
cm
rain 24hr
cm
rain mn
cm
humidity
%
barometer
mb
20200229100013 11 185 0.0 0.0 0.00 0.00 0.00 78 1012.1
20200229094511 11 185 0.0 0.0 0.00 0.00 0.00 78 1012.1
20200229093032 11 185 0.0 0.0 0.00 0.00 0.00 77 1012.0
20200229090134 12 185 0.0 0.0 0.00 0.00 0.00 76 1011.8
20200229084517 12 185 0.0 0.0 0.00 0.00 0.00 76 1011.8
20200229083036 12 185 0.0 0.0 0.00 0.00 0.00 75 1011.7
20200229081514 12 185 0.0 0.0 0.00 0.00 0.00 75 1011.7
20200229080028 12 185 0.0 0.0 0.00 0.00 0.00 75 1011.6
20200229074518 12 185 0.0 0.0 0.00 0.00 0.00 74 1011.5
20200229073009 12 185 0.0 0.0 0.00 0.00 0.00 74 1011.4
20200229071838 12 185 0.0 0.0 0.00 0.00 0.00 73 1011.4
20200229070125 13 185 0.0 0.0 0.00 0.00 0.00 73 1011.5
20200229064540 13 185 0.0 0.0 0.00 0.00 0.00 72 1011.5
20200229063021 13 185 0.0 0.0 0.00 0.00 0.00 71 1011.7
20200229061507 13 185 0.0 0.0 0.00 0.00 0.00 70 1011.8
20200229060144 14 185 0.0 0.0 0.00 0.00 0.00 70 1011.9
20200229054514 15 185 0.0 0.0 0.00 0.00 0.00 68 1012.0
20200229053008 15 185 0.0 0.0 0.00 0.00 0.00 65 1012.0
20200229051504 16 185 0.0 0.0 0.00 0.00 0.00 63 1012.2
20200229050240 17 185 0.0 0.0 0.00 0.00 0.00 60 1012.4
20200229044530 17 185 0.0 0.0 0.00 0.00 0.00 58 1012.4
20200229043014 17 185 0.0 0.0 0.00 0.00 0.00 59 1012.5
20200229041524 16 185 0.0 0.0 0.00 0.00 0.00 61 1012.4
20200229040115 15 185 0.0 0.0 0.00 0.00 0.00 66 1012.4
20200229034651 15 185 0.0 0.0 0.00 0.00 0.00 64 1012.3
20200229033143 16 185 0.0 0.0 0.00 0.00 0.00 62 1012.3
20200229031648 16 185 0.0 0.0 0.00 0.00 0.00 60 1012.4
20200229030019 17 185 0.0 0.0 0.00 0.00 0.00 57 1012.5
20200229024506 18 185 0.0 0.0 0.00 0.00 0.00 54 1012.6
20200229023132 19 185 0.0 0.0 0.00 0.00 0.00 52 1012.6
20200229021530 18 185 0.0 0.0 0.00 0.00 0.00 53 1012.6
20200229020023 18 185 0.0 0.0 0.00 0.00 0.00 53 1012.5
20200229014505 20 185 0.0 1.6 0.00 0.00 0.00 50 1012.3
20200229013147 21 185 0.0 3.2 0.00 0.00 0.00 46 1012.3
20200229011819 22 185 1.6 4.8 0.00 0.00 0.00 40 1012.1
20200229010014 23 180 3.2 8.0 0.00 0.00 0.00 38 1011.8
20200229004520 24 101 1.6 11.3 0.00 0.00 0.00 36 1011.6
20200229003002 25 65 0.0 4.8 0.00 0.00 0.00 36 1011.3
20200229001632 25 263 0.0 4.8 0.00 0.00 0.00 34 1011.0
20200229000005 25 255 3.2 16.1 0.00 0.00 0.00 33 1010.8
20200228234502 25 133 4.8 17.7 0.00 0.00 0.00 33 1010.7
20200228233157 25 218 3.2 12.9 0.00 0.00 0.00 33 1010.6
20200228231548 26 232 3.2 16.1 0.00 0.00 0.00 32 1010.4
20200228230013 26 229 6.4 12.9 0.00 0.00 0.00 33 1010.3
20200228224516 26 237 9.7 19.3 0.00 0.00 0.00 32 1010.1
20200228223432 26 219 4.8 19.3 0.00 0.00 0.00 32 1010.0
20200228221529 27 239 4.8 17.7 0.00 0.00 0.00 31 1009.9
20200228220016 28 265 8.0 16.1 0.00 0.00 0.00 29 1009.8
20200228214532 28 209 6.4 19.3 0.00 0.00 0.00 29 1009.7
20200228213306 28 217 8.0 19.3 0.00 0.00 0.00 28 1009.9
20200228211520 29 235 8.0 24.1 0.00 0.00 0.00 28 1009.8
20200228210006 29 249 8.0 22.5 0.00 0.00 0.00 27 1009.7
20200228204510 30 191 8.0 22.5 0.00 0.00 0.00 27 1009.8
20200228203225 30 180 6.4 22.5 0.00 0.00 0.00 27 1009.8
20200228201530 30 209 8.0 20.9 0.00 0.00 0.00 27 1009.9
20200228200025 30 197 8.0 24.1 0.00 0.00 0.00 26 1009.9
20200228194514 30 234 9.7 20.9 0.00 0.00 0.00 26 1010.0
20200228193107 30 213 9.7 25.7 0.00 0.00 0.00 26 1010.2
20200228191641 30 217 8.0 24.1 0.00 0.00 0.00 25 1010.2
20200228190015 30 186 9.7 22.5 0.00 0.00 0.00 26 1010.4
20200228184502 30 247 11.3 20.9 0.00 0.00 0.00 25 1010.5
20200228183152 30 252 9.7 29.0 0.00 0.00 0.00 26 1010.7
20200228181515 30 234 8.0 22.5 0.00 0.00 0.00 26 1010.7
20200228180018 30 202 11.3 24.1 0.00 0.00 0.00 26 1010.9
20200228174505 30 261 9.7 25.7 0.00 0.00 0.00 27 1011.1
20200228173158 30 233 9.7 20.9 0.00 0.00 0.00 26 1011.1
20200228171520 30 221 8.0 24.1 0.00 0.00 0.00 27 1011.1
20200228170019 29 246 8.0 20.9 0.00 0.00 0.00 28 1011.2
20200228164518 29 246 9.7 20.9 0.00 0.00 0.00 28 1011.4
20200228163004 28 188 8.0 20.9 0.00 0.00 0.00 28 1011.6
20200228161716 28 195 9.7 20.9 0.00 0.00 0.00 29 1011.9
20200228160018 28 247 6.4 19.3 0.00 0.00 0.00 31 1012.2
20200228154512 28 224 6.4 19.3 0.00 0.00 0.00 31 1012.4
20200228153001 27 193 8.0 17.7 0.00 0.00 0.00 32 1012.6
20200228151639 27 207 8.0 16.1 0.00 0.00 0.00 32 1012.7
20200228150043 26 194 6.4 20.9 0.00 0.00 0.00 32 1012.8
20200228144512 26 238 6.4 20.9 0.00 0.00 0.00 35 1012.7
20200228143009 25 215 4.8 16.1 0.00 0.00 0.00 36 1013.0
20200228141524 25 201 3.2 14.5 0.00 0.00 0.00 37 1013.0
20200228140016 23 114 3.2 14.5 0.00 0.00 0.00 38 1013.2
20200228134520 22 61 4.8 17.7 0.00 0.00 0.00 40 1013.3
20200228133002 23 120 3.2 12.9 0.00 0.00 0.00 40 1013.3
20200228131659 23 52 0.0 0.0 0.00 0.00 0.00 40 1013.2
20200228130041 21 51 0.0 0.0 0.00 0.00 0.00 47 1013.2
20200228124525 18 51 0.0 0.0 0.00 0.00 0.00 54 1013.2
20200228123008 15 58 0.0 0.0 0.00 0.00 0.00 70 1013.3
20200228121514 13 58 0.0 0.0 0.00 0.00 0.00 73 1013.2
20200228120124 13 58 0.0 0.0 0.00 0.00 0.00 73 1013.1
20200228114519 13 58 0.0 0.0 0.00 0.00 0.00 73 1013.1
20200228113032 13 58 0.0 0.0 0.00 0.00 0.00 72 1013.0
20200228111502 13 58 0.0 0.0 0.00 0.00 0.00 72 1013.0
20200228110035 12 58 0.0 0.0 0.00 0.00 0.00 75 1012.8
20200228104517 12 58 0.0 0.0 0.00 0.00 0.00 74 1012.7
20200228103236 12 58 0.0 0.0 0.00 0.00 0.00 74 1012.7
20200228101619 13 58 0.0 0.0 0.00 0.00 0.00 71 1012.6